Weather History for Sioux City, IA

Change the Weather History Date:

Monday, April 8, 2013

  Actual Average Record
Temperature  
Mean Temperature 54 °F 46 °F  
Max Temperature 74 °F 59 °F 89 °F (1931)
Min Temperature 33 °F 34 °F 14 °F (1997)
Degree Days  
Heating Degree Days 11 19  
Month to date heating degree days 161 162  
Since 1 July heating degree days 6357 6340  
Cooling Degree Days 0 0  
Month to date cooling degree days 0 0  
Year to date cooling degree days 0 0  
Growing Degree Days 3 (Base 50)    
Moisture  
Dew Point 44 °F    
Average Humidity 71    
Maximum Humidity 100    
Minimum Humidity 41    
Precipitation  
Precipitation T in 0.09 in 1.09 in (1999)
Month to date precipitation 0.03 0.70  
Year to date precipitation 3.23 3.99  
Snow  
Snow 0.00 in 0.10 in 1.20 in (1962)
Month to date snowfall 0.0 0.8  
Since 1 July snowfall 32.5 33.8  
Snow Depth 0.00 in    
Sea Level Pressure  
Sea Level Pressure 29.68 in    
Wind  
Wind Speed 8 mph (ESE)    
Max Wind Speed 29 mph    
Max Gust Speed 37 mph    
Visibility 5 miles    
Events Fog    
T = Trace of Precipitation, MM = Missing Value Source: NWS Daily Summary

Daily Weather History Graph

Daily Weather History Graph

Search for Another Location

Airport:

Trip Planner

Search our weather history database for the weather conditions in past years. The results will help you decide how hot, cold, wet, or windy it might be!

Date:

Astronomy

Apr. 08, 2013 Rise Set
Actual Time 6:55 AM CDT 7:59 PM CDT
Civil Twilight 6:26 AM CDT 8:28 PM CDT
Nautical Twilight 5:52 AM CDT 9:02 PM CDT
Astronomical Twilight 5:16 AM CDT 9:38 PM CDT
Moon 5:48 AM CDT (4/8) 6:34 PM CDT (4/8)
Length of Visible Light 14h 01m
Length of Day
13h 04m
Waning Crescent, 3% of the Moon is Illuminated
Apr 8
Waning Crescent
Apr 10
New
Apr 18
First Quarter
Apr 25
Full
May 2
Last Quarter

Hourly Weather History & Observations

Time (CDT) Temp. Windchill Dew Point Humidity Pressure Visibility Wind Dir Wind Speed Gust Speed Precip Events Conditions
12:52 AM 48.9 °F - 46.9 °F 93% 29.64 in 7.0 mi Calm Calm - N/A   Scattered Clouds
1:33 AM 46.4 °F - 44.6 °F 93% 29.63 in 2.5 mi Calm Calm - N/A   Clear
1:41 AM 44.6 °F - 44.6 °F 100% 29.63 in 5.0 mi Calm Calm - N/A   Clear
1:52 AM 43.0 °F - 42.1 °F 97% 29.64 in 3.0 mi Calm Calm - N/A   Clear
1:58 AM 42.8 °F 41.1 °F 42.8 °F 100% 29.63 in 1.8 mi WSW 3.5 mph - N/A   Clear
2:07 AM 42.8 °F 41.1 °F 42.8 °F 100% 29.64 in 3.0 mi West 3.5 mph - N/A   Clear
2:50 AM 46.4 °F - 44.6 °F 93% 29.64 in 2.5 mi Calm Calm - N/A   Clear
2:52 AM 46.0 °F - 45.0 °F 96% 29.64 in 2.5 mi Calm Calm - N/A   Clear
2:59 AM 42.8 °F - 42.8 °F 100% 29.64 in 0.8 mi Calm Calm - N/A   Clear
3:08 AM 41.0 °F - 39.2 °F 93% 29.63 in 0.2 mi Calm Calm - N/A Fog Fog
3:25 AM 39.2 °F - 39.2 °F 100% 29.64 in 0.2 mi Calm Calm - N/A Fog Fog
3:52 AM 37.9 °F 35.5 °F 37.9 °F 100% 29.64 in 0.2 mi SSW 3.5 mph - N/A Fog Fog
4:19 AM 37.4 °F 34.9 °F 37.4 °F 100% 29.64 in 0.2 mi South 3.5 mph - N/A Fog Fog
4:52 AM 39.0 °F 36.8 °F 37.9 °F 96% 29.64 in 0.2 mi NE 3.5 mph - N/A Fog Fog
5:52 AM 36.0 °F - 36.0 °F 100% 29.64 in 0.2 mi Calm Calm - N/A Fog Fog
6:19 AM 35.6 °F 31.7 °F 35.6 °F 100% 29.64 in 0.5 mi South 4.6 mph - N/A Fog Fog
6:30 AM 35.6 °F - 33.8 °F 93% 29.64 in 0.5 mi Calm Calm - N/A Fog Fog
6:52 AM 35.1 °F - 34.0 °F 96% 29.66 in 0.5 mi Calm Calm - N/A Fog Fog
7:09 AM 33.8 °F 30.8 °F 33.8 °F 100% 29.66 in 0.2 mi SSW 3.5 mph - N/A Fog Fog
7:34 AM 37.4 °F - 35.6 °F 93% 29.66 in 0.2 mi Calm Calm - N/A Fog Fog
7:50 AM 37.4 °F 34.9 °F 37.4 °F 100% 29.67 in 0.2 mi ESE 3.5 mph - N/A Fog Fog
7:52 AM 37.9 °F 35.5 °F 37.9 °F 100% 29.68 in 0.2 mi East 3.5 mph - N/A Fog Fog
8:08 AM 41.0 °F 39.0 °F 39.2 °F 93% 29.66 in 0.5 mi East 3.5 mph - N/A Fog Fog
8:15 AM 39.2 °F 35.9 °F 39.2 °F 100% 29.66 in 2.0 mi ENE 4.6 mph - N/A   Mostly Cloudy
8:22 AM 41.0 °F 38.0 °F 39.2 °F 93% 29.66 in 3.0 mi ENE 4.6 mph - N/A   Scattered Clouds
8:52 AM 45.0 °F 41.8 °F 44.1 °F 97% 29.67 in 5.0 mi East 5.8 mph - N/A   Clear
9:24 AM 46.4 °F 43.5 °F 46.4 °F 100% 29.67 in 3.0 mi ESE 5.8 mph - N/A   Partly Cloudy
9:52 AM 52.0 °F - 48.9 °F 89% 29.69 in 10.0 mi East 3.5 mph - N/A   Mostly Cloudy
10:52 AM 57.0 °F - 50.0 °F 77% 29.69 in 10.0 mi Calm Calm - N/A   Mostly Cloudy
11:14 AM 59.0 °F - 51.8 °F 77% 29.69 in 10.0 mi Calm Calm - N/A   Scattered Clouds
11:31 AM 57.2 °F - 51.8 °F 82% 29.70 in 10.0 mi Variable 3.5 mph - N/A   Mostly Cloudy
11:52 AM 59.0 °F - 51.1 °F 75% 29.70 in 10.0 mi SW 8.1 mph - N/A   Overcast
12:13 PM 60.8 °F - 51.8 °F 72% 29.70 in 10.0 mi Variable 4.6 mph - N/A   Scattered Clouds
12:52 PM 64.9 °F - 52.0 °F 63% 29.69 in 10.0 mi SE 6.9 mph - N/A   Clear
1:52 PM 69.1 °F - 51.1 °F 53% 29.68 in 10.0 mi Variable 6.9 mph - N/A   Clear
2:52 PM 71.1 °F - 48.9 °F 45% 29.67 in 10.0 mi SSE 4.6 mph - N/A   Clear
3:52 PM 73.0 °F - 48.0 °F 41% 29.67 in 10.0 mi SE 8.1 mph - N/A   Clear
4:52 PM 73.0 °F - 48.0 °F 41% 29.67 in 10.0 mi South 6.9 mph - N/A   Clear
5:52 PM 73.0 °F - 48.0 °F 41% 29.68 in 10.0 mi ESE 3.5 mph - N/A   Clear
6:52 PM 71.1 °F - 50.0 °F 47% 29.70 in 10.0 mi SE 6.9 mph - N/A   Clear
7:52 PM 63.0 °F - 51.1 °F 65% 29.74 in 10.0 mi NE 17.3 mph 24.2 mph N/A   Scattered Clouds
8:52 PM 57.0 °F - 48.9 °F 74% 29.77 in 10.0 mi NE 18.4 mph 27.6 mph N/A   Mostly Cloudy
9:52 PM 52.0 °F - 46.9 °F 83% 29.81 in 8.0 mi NE 18.4 mph 27.6 mph N/A   Partly Cloudy
10:27 PM 51.8 °F - 46.4 °F 82% 29.81 in 7.0 mi NE 18.4 mph 26.5 mph N/A   Mostly Cloudy
10:52 PM 50.0 °F - 45.0 °F 83% 29.79 in 8.0 mi ENE 24.2 mph 35.7 mph N/A   Overcast
11:52 PM 48.0 °F - 44.1 °F 86% 29.78 in 6.0 mi ENE 21.9 mph 32.2 mph N/A   Overcast